TimeMDT,TemperatureF,Dew PointF,Humidity,Sea Level PressureIn,VisibilityMPH,Wind Direction,Wind SpeedMPH,Gust SpeedMPH,PrecipitationIn,Events,Conditions,WindDirDegrees,DateUTC
12:15 AM,45.0,25.9,47,30.22,10.0,East,5.8,-,N/A,,Clear,80,2012-10-10 06:15:00
12:35 AM,50.5,31.6,48,30.22,10.0,East,12.7,-,N/A,,Clear,90,2012-10-10 06:35:00
12:55 AM,50.7,33.3,51,30.22,10.0,East,18.4,24.2,N/A,,Clear,80,2012-10-10 06:55:00
1:15 AM,49.3,33.8,55,30.23,10.0,East,16.1,25.3,N/A,,Clear,80,2012-10-10 07:15:00
1:35 AM,48.7,34.3,58,30.23,10.0,East,15.0,-,N/A,,Clear,80,2012-10-10 07:35:00
1:55 AM,48.0,34.3,59,30.25,10.0,WNW,5.8,9.2,N/A,,Clear,290,2012-10-10 07:55:00
2:15 AM,47.3,34.9,62,30.27,10.0,East,4.6,-,N/A,,Clear,100,2012-10-10 08:15:00
2:35 AM,47.1,35.1,63,30.28,10.0,NE,5.8,-,N/A,,Clear,40,2012-10-10 08:35:00
2:55 AM,44.8,34.2,66,30.28,10.0,ENE,6.9,-,N/A,,Clear,60,2012-10-10 08:55:00
3:15 AM,43.3,34.0,70,30.27,10.0,East,4.6,-,N/A,,Clear,80,2012-10-10 09:15:00
3:35 AM,39.6,30.9,71,30.27,10.0,South,6.9,-,N/A,,Clear,170,2012-10-10 09:35:00
3:55 AM,38.7,30.2,72,30.27,10.0,West,5.8,-,N/A,,Clear,260,2012-10-10 09:55:00
4:15 AM,38.1,31.1,76,30.28,10.0,West,3.5,-,N/A,,Clear,270,2012-10-10 10:15:00
4:35 AM,37.4,30.7,77,30.28,10.0,Calm,Calm,-,N/A,,Clear,0,2012-10-10 10:35:00
4:55 AM,34.9,29.5,81,30.29,10.0,Calm,Calm,-,N/A,,Clear,0,2012-10-10 10:55:00
5:15 AM,38.7,31.8,76,30.29,10.0,Calm,Calm,-,N/A,,Clear,0,2012-10-10 11:15:00
5:35 AM,35.4,30.0,81,30.29,10.0,Calm,Calm,-,N/A,,Clear,0,2012-10-10 11:35:00
5:55 AM,37.2,30.7,77,30.29,10.0,Calm,Calm,-,N/A,,Clear,0,2012-10-10 11:55:00
6:15 AM,33.3,28.9,84,30.29,10.0,Calm,Calm,-,N/A,,Clear,0,2012-10-10 12:15:00
6:55 AM,32.0,27.3,83,30.31,10.0,Calm,Calm,-,N/A,,Clear,0,2012-10-10 12:55:00
7:35 AM,32.2,26.8,80,30.31,10.0,Calm,Calm,-,N/A,,Clear,0,2012-10-10 13:35:00
7:55 AM,36.5,31.1,81,30.31,5.0,SSE,4.6,-,N/A,,Haze,150,2012-10-10 13:55:00
8:15 AM,40.5,34.3,79,30.31,7.0,SSE,4.6,-,N/A,,Scattered Clouds,150,2012-10-10 14:15:00
8:35 AM,42.8,35.1,74,30.32,10.0,South,5.8,-,N/A,,Clear,170,2012-10-10 14:35:00
8:55 AM,44.8,35.6,70,30.33,10.0,South,3.5,-,N/A,,Clear,180,2012-10-10 14:55:00
9:15 AM,46.4,35.6,66,30.33,10.0,South,3.5,-,N/A,,Clear,190,2012-10-10 15:15:00
9:35 AM,48.2,36.1,63,30.33,10.0,South,4.6,-,N/A,,Clear,180,2012-10-10 15:35:00
9:55 AM,49.5,36.5,61,30.34,10.0,SSE,6.9,-,N/A,,Clear,160,2012-10-10 15:55:00
10:15 AM,51.1,36.7,58,30.33,10.0,SSE,6.9,-,N/A,,Clear,150,2012-10-10 16:15:00
10:35 AM,52.5,36.9,55,30.32,10.0,SSE,5.8,-,N/A,,Clear,160,2012-10-10 16:35:00
10:55 AM,54.0,37.2,53,30.32,10.0,South,8.1,-,N/A,,Clear,190,2012-10-10 16:55:00
11:15 AM,56.5,37.2,49,30.31,10.0,South,6.9,-,N/A,,Clear,170,2012-10-10 17:15:00
11:35 AM,57.4,37.2,47,30.31,10.0,South,9.2,-,N/A,,Clear,180,2012-10-10 17:35:00
11:55 AM,58.8,36.7,44,30.29,10.0,South,8.1,-,N/A,,Clear,170,2012-10-10 17:55:00
12:15 PM,59.9,36.5,42,30.29,10.0,South,9.2,-,N/A,,Clear,170,2012-10-10 18:15:00
12:35 PM,61.7,36.7,39,30.28,10.0,SSE,6.9,-,N/A,,Clear,160,2012-10-10 18:35:00
12:55 PM,63.5,35.1,35,30.26,10.0,South,8.1,-,N/A,,Clear,180,2012-10-10 18:55:00
1:15 PM,64.6,35.1,33,30.25,10.0,SSW,6.9,-,N/A,,Clear,200,2012-10-10 19:15:00
1:35 PM,65.8,34.7,32,30.23,10.0,SE,8.1,-,N/A,,Clear,140,2012-10-10 19:35:00
1:55 PM,67.8,34.9,30,30.22,10.0,South,5.8,-,N/A,,Clear,180,2012-10-10 19:55:00
2:15 PM,68.9,34.7,28,30.20,10.0,SSE,8.1,-,N/A,,Clear,150,2012-10-10 20:15:00
2:35 PM,71.2,33.8,25,30.19,10.0,South,4.6,-,N/A,,Clear,180,2012-10-10 20:35:00
2:55 PM,72.7,33.1,23,30.18,10.0,SSW,6.9,-,N/A,,Clear,200,2012-10-10 20:55:00
3:15 PM,73.8,33.3,23,30.17,7.0,South,8.1,-,N/A,,Clear,170,2012-10-10 21:15:00
3:35 PM,74.7,31.3,20,30.17,10.0,South,11.5,17.3,N/A,,Clear,170,2012-10-10 21:35:00
3:55 PM,74.7,31.1,20,30.16,10.0,SSW,11.5,-,N/A,,Clear,210,2012-10-10 21:55:00
4:15 PM,75.4,30.6,19,30.16,10.0,South,9.2,-,N/A,,Clear,190,2012-10-10 22:15:00
4:35 PM,75.2,28.9,18,30.16,10.0,SSW,12.7,16.1,N/A,,Clear,200,2012-10-10 22:35:00
4:55 PM,75.4,28.4,18,30.15,10.0,SW,6.9,-,N/A,,Clear,220,2012-10-10 22:55:00
5:15 PM,76.1,26.6,16,30.14,10.0,SSW,10.4,-,N/A,,Clear,210,2012-10-10 23:15:00
5:55 PM,73.6,25.7,17,30.14,10.0,South,10.4,-,N/A,,Clear,170,2012-10-10 23:55:00
6:15 PM,71.6,24.3,17,30.14,10.0,South,8.1,-,N/A,,Clear,170,2012-10-11 00:15:00
6:35 PM,66.7,26.4,22,30.14,10.0,South,6.9,-,N/A,,Clear,170,2012-10-11 00:35:00
6:55 PM,63.0,26.4,25,30.14,10.0,SE,6.9,-,N/A,,Clear,140,2012-10-11 00:55:00
7:15 PM,61.7,28.2,28,30.15,10.0,SSE,6.9,-,N/A,,Clear,150,2012-10-11 01:15:00
7:35 PM,60.8,27.7,28,30.16,10.0,SE,8.1,-,N/A,,Clear,140,2012-10-11 01:35:00
7:55 PM,61.2,33.4,35,30.16,10.0,SE,12.7,-,N/A,,Clear,130,2012-10-11 01:55:00
8:15 PM,60.8,34.2,37,30.16,10.0,SE,15.0,-,N/A,,Clear,130,2012-10-11 02:15:00
8:35 PM,59.7,34.2,38,30.17,10.0,SE,13.8,-,N/A,,Clear,130,2012-10-11 02:35:00
8:55 PM,57.7,34.2,41,30.17,10.0,SE,13.8,17.3,N/A,,Clear,130,2012-10-11 02:55:00
9:15 PM,57.4,34.2,42,30.18,10.0,SE,11.5,-,N/A,,Clear,130,2012-10-11 03:15:00
9:35 PM,56.5,33.8,42,30.19,10.0,SE,9.2,-,N/A,,Clear,140,2012-10-11 03:35:00
9:55 PM,55.0,33.1,43,30.20,10.0,SSE,8.1,-,N/A,,Clear,160,2012-10-11 03:55:00
10:15 PM,52.7,33.1,47,30.20,10.0,SSE,6.9,-,N/A,,Clear,150,2012-10-11 04:15:00
10:35 PM,52.0,33.3,49,30.20,10.0,SSE,4.6,-,N/A,,Clear,150,2012-10-11 04:35:00
10:55 PM,46.6,32.2,57,30.20,10.0,Calm,Calm,-,N/A,,Clear,0,2012-10-11 04:55:00
11:15 PM,49.1,32.4,53,30.20,10.0,South,3.5,-,N/A,,Clear,180,2012-10-11 05:15:00
11:35 PM,45.0,31.1,58,30.20,10.0,NW,3.5,-,N/A,,Clear,310,2012-10-11 05:35:00
11:55 PM,42.3,30.0,62,30.19,10.0,NNW,4.6,-,N/A,,Clear,330,2012-10-11 05:55:00